SCP
0 0 0 0 0 -0 0 0 0 0 0 0 0 0 0 0 0 -0 -0 -0 -0 0 -0 -0 0 0 0 -0 0 0 0 0 -0 0 0 0 0 0 0 0 0 0 0 0
0 0 0 0 0 0 0 0 0 0 0 0 0 0 0 0 0 0 0 0 -0 0 -0 -0 -0 -0 0 0 -0 0 0 0 -0 0 0 0 0 0 0 0 0 0 0 -0
0 0 0 0 0 0 0 0 0 0 0 0 0 0 0 0 0 0 0 -0 -0 0 -0 0 -0 -0 -0 -0 0 0 0 -0 0 0 0 0 0 0 0 0 0 0 0 -0
0 0 0 0 0 0 0 0 0 0 0 0 0 0 0 0 0 0 0 0 -0 0 -0 0 0 0 0 0 0 0 0 -0 0 0 0 0 0 0 0 0 0 0 0 0
0 0 0 0 0 0 0 0 0 0 0 0 0 0 0 0 0 0 0 -0 0 -0 -0 -0 -0 -0 -0 0 0 -0 -0 0 0 0 0 -0 0 0 0 0 0 0 -0 0
0 0 0 0 0 0 0 0 0 0 0 0 0 0 0 0 0 0 0 -0 -0 0 -0 0 -0 -0 -0 -0 -0 0 -0 0 0 0 -0 -0 0 0 0 0 0 0 -0 -0
0 0 0 0 0 0 0 0 0 0 0 0 0 0 0 0 0 0 0 0 0 -0 0 0 0 -0 -0 0 -0 0 -0 0 0 0 0 -0 0 0 0 0 0 -0 -0 0
0 0 0 0 0 0 0 0 0 0 0 0 0 0 0 0 0 0 -0 0 0 -0 0 0 0 0 0 -0 -0 -0 -0 0 0 -0 0 0 0 0 0 0 0 1 0 0
0 0 0 0 0 0 0 0 0 0 0 0 0 0 0 0 0 0 0 -0 -0 0 0 0 0 0 -0 -0 -0 -0 0 -0 0 -0 -0 0 0 0 0 0 0 0 0 0
0 0 0 0 0 0 0 0 0 0 0 0 0 0 0 0 0 0 0 -0 0 -0 0 0 0 0 0 -0 -0 -0 0 0 -0 -0 -0 0 0 0 0 0 0 0 0 0
0 0 0 0 0 0 0 0 0 0 0 0 0 0 0 0 0 0 0 0 0 0 0 0 0 0 0 0 -0 -0 0 0 -0 -0 -0 0 0 0 0 0 0 0 0 0
0 0 0 0 0 0 0 0 0 0 0 0 0 0 0 0 0 0 0 0 0 0 0 0 0 0 0 0 0 0 0 0 0 0 -0 0 0 0 0 0 0 0 0 0
0 0 0 0 0 0 0 0 0 0 0 0 0 0 0 0 0 0 0 0 0 0 0 0 0 0 0 0 -0 0 0 -0 -0 0 0 0 0 0 0 0 0 0 0 0
0 0 0 0 0 0 0 0 0 0 0 0 0 0 -0 0 0 0 0 0 0 -0 0 -0 0 0 0 -0 -0 -0 0 0 0 0 0 0 0 0 0 0 0 0 0 0
0 0 0 0 0 0 0 0 0 0 0 0 0 -0 0 0 0 0 0 0 0 -0 0 -0 0 0 0 -0 -0 -0 -0 0 0 0 0 0 0 0 0 0 0 0 0 0
0 0 0 0 0 0 0 0 0 0 0 0 0 0 0 0 0 0 0 0 0 0 -0 -0 -0 -0 -0 -0 -0 -0 0 -0 0 -0 0 0 0 -0 0 0 0 0 0 0
0 0 0 0 0 0 0 0 0 0 0 0 0 0 0 0 0 0 0 0 0 0 0 0 0 -0 -0 -0 -0 -0 -0 0 0 0 0 0 0 0 0 0 0 0 0 0
0 0 0 0 0 0 0 0 0 0 0 0 0 0 0 0 0 0 0 0 0 0 0 -0 -0 -0 -0 -0 -0 -0 -0 -0 0 -0 0 0 0 0 0 0 0 0 0 0
0 0 0 0 0 0 0 0 0 0 0 0 0 0 0 0 0 0 0 0 0 0 0 0 0 -0 -0 -0 0 -0 -0 -0 0 -0 -0 -0 0 0 0 0 0 0 0 0
0 0 0 0 0 0 0 0 0 0 0 0 0 0 0 0 0 0 0 0 0 0 0 0 0 0 -0 -0 -0 0 0 -0 -0 0 0 -0 0 0 0 0 0 0 0 0
0 0 0 0 0 0 0 0 0 0 0 0 0 0 0 0 0 0 0 0 -0 0 -0 0 0 0 0 -0 -0 -0 -0 -0 -0 0 -0 -0 0 0 0 0 0 0 0 0
0 0 0 0 0 0 0 0 0 0 0 0 0 0 0 0 0 0 0 0 0 0 0 0 0 0 0 0 0 0 -0 -0 0 -0 -0 -0 -0 -0 -0 0 0 0 0 0
0 0 0 0 0 0 0 0 0 0 0 0 0 0 0 0 0 0 0 0 0 -0 -0 0 0 0 0 0 0 0 -0 -0 0 -0 -0 -0 -0 -0 -0 0 0 0 0 0
0 0 0 0 0 0 0 -0 -0 0 0 0 0 0 0 0 0 0 0 0 0 0 -0 0 0 -0 0 0 0 0 0 -0 0 0 -0 -0 -0 -0 -0 0 0 0 0 0
0 0 0 0 0 -0 -0 0 0 0 0 0 0 0 0 0 0 0 0 0 0 0 -0 0 0 -0 -0 0 0 0 0 0 0 0 0 0 -0 -0 -0 0 -0 -0 -0 0
0 0 0 0 0 0 0 0 0 0 0 0 0 0 0 0 0 0 0 0 0 0 0 0 0 -0 0 0 0 0 0 0 0 0 0 0 -0 -0 -0 -0 -0 -0 -0 -0
0 0 0 0 0 0 0 0 0 0 0 0 0 0 0 0 0 0 0 0 0 0 0 0 0 0 0 0 0 -0 0 0 0 0 0 -0 -0 -0 -0 -0 0 0 0 -0
Wind_Speed_500mb
53 58 65 67 64 66 54 13 7 8 19 7 6 5 31 44 42 54 28 23 25 24 32 27 18 21 18 21 16 12 6 6 12 25 35 34 36 42 32 17 37 17 9 17
56 55 59 63 55 56 58 32 17 19 7 3 4 18 28 37 38 23 23 29 28 23 18 15 10 9 24 29 11 3 8 6 10 15 12 16 13 25 30 13 9 40 20 25
58 59 55 58 51 41 46 16 8 16 32 33 20 22 22 30 38 29 35 26 31 14 8 16 16 15 17 20 26 13 10 7 13 17 19 16 22 41 32 22 19 16 26 38
58 61 56 53 52 35 29 8 10 25 10 23 28 22 21 37 35 25 38 10 24 33 23 32 26 28 27 3 13 8 6 9 20 29 36 23 32 39 39 31 29 23 33 15
57 60 56 50 53 40 18 16 14 19 33 37 33 17 14 28 24 29 17 30 28 22 30 27 32 25 19 19 19 9 8 7 19 25 28 22 35 40 37 39 44 34 40 37
55 56 55 48 51 45 13 19 18 27 17 17 19 20 36 36 31 18 47 35 18 23 31 42 60 52 44 28 22 18 16 9 6 9 17 17 15 31 36 28 37 42 36 33
56 52 52 46 42 40 29 27 32 15 13 16 23 39 41 36 41 24 42 37 18 29 66 65 43 53 46 37 30 24 24 6 0 8 3 9 10 21 32 33 30 37 20 37
54 51 49 48 45 40 38 29 20 11 9 28 36 39 39 53 45 29 38 46 64 62 33 11 12 9 4 21 32 27 26 8 6 5 5 23 25 20 21 13 15 37 41 44
53 49 47 48 49 43 39 37 16 29 16 12 46 52 47 27 15 15 23 47 53 20 4 5 8 8 9 8 10 28 8 17 7 5 9 12 13 43 62 38 11 23 20 19
50 49 47 47 47 43 38 41 8 32 25 49 31 28 29 34 33 9 19 40 22 33 9 4 5 6 6 10 11 5 3 3 10 6 3 5 24 50 83 11 2 14 24 21
47 48 46 47 45 46 46 51 18 27 29 66 62 35 50 68 50 8 26 23 13 8 12 7 7 6 7 8 9 12 8 8 1 5 1 4 39 40 13 14 26 15 35 31
46 46 47 46 46 45 45 53 18 29 38 53 74 53 40 44 44 40 4 6 11 9 5 6 6 4 5 9 8 9 5 9 4 10 8 9 37 48 37 28 20 32 38 39
46 49 48 47 46 44 47 57 39 18 35 56 18 30 29 20 19 31 4 6 8 7 11 7 4 5 5 5 5 7 11 20 5 2 11 12 31 46 47 46 54 49 46 42
49 53 48 47 47 48 52 54 29 26 18 10 20 34 50 23 27 21 14 11 10 12 13 10 5 5 5 4 4 3 5 10 14 4 11 11 31 54 58 50 51 42 49 44
53 49 45 47 50 54 53 46 27 32 23 9 29 52 17 18 38 19 15 16 7 4 7 8 6 6 6 4 4 6 10 4 4 4 24 11 11 38 47 47 38 34 38 40
54 49 42 46 51 51 32 9 6 10 35 11 8 22 25 25 21 23 32 26 14 8 9 12 10 7 9 3 4 2 19 20 14 9 28 22 25 30 44 36 38 45 45 44
44 35 35 43 42 35 13 6 3 15 25 9 11 9 9 22 18 22 27 30 22 15 10 10 12 19 3 5 4 9 11 14 13 20 24 26 35 42 42 43 50 30 33 34
39 36 39 39 27 14 9 23 13 17 20 12 6 8 12 14 15 8 22 14 19 14 10 10 6 15 4 6 8 17 10 10 18 19 16 14 17 24 33 36 47 56 50 46
35 30 32 20 5 7 9 15 19 34 15 8 8 5 5 1 22 5 9 13 5 9 6 6 3 4 5 3 16 20 17 11 13 10 21 16 25 32 34 37 41 42 42 41
23 19 8 3 6 17 13 7 8 12 14 15 9 24 9 9 13 3 8 7 4 3 8 1 4 1 1 9 6 7 9 14 14 28 24 19 20 19 24 26 24 27 30 31
18 11 8 9 7 8 8 8 11 14 9 16 16 32 16 6 5 3 3 3 6 4 4 6 3 3 7 9 13 9 15 16 19 24 18 21 21 20 20 25 25 24 24 27
25 28 37 26 7 11 8 7 9 12 9 19 11 21 21 10 5 5 1 2 5 7 3 5 5 6 26 18 21 15 17 12 24 21 16 27 36 29 32 29 29 27 27 29
15 5 6 6 8 8 11 11 8 8 12 16 16 11 13 8 7 3 3 1 7 20 6 2 5 23 29 19 13 8 12 12 21 23 22 20 23 22 28 27 25 24 30 38
8 7 8 10 10 11 11 15 13 13 20 2 2 17 11 11 7 6 6 8 3 5 4 2 6 9 27 25 21 14 8 9 10 28 13 15 23 21 25 23 25 29 33 40
10 10 9 12 29 33 34 39 42 41 11 2 6 6 12 3 2 6 1 4 4 9 7 3 24 21 26 25 22 12 8 10 12 12 18 20 23 19 21 21 18 33 27 38
11 17 16 32 27 25 33 33 27 29 18 15 8 3 4 8 7 7 10 6 10 7 5 20 28 22 21 20 17 16 16 15 10 8 7 11 14 13 14 18 19 29 27 35
13 16 26 40 45 41 50 49 41 18 11 11 8 4 10 6 6 5 7 9 8 18 20 18 21 20 20 15 11 23 17 9 13 8 8 9 7 15 13 19 21 19 29 35
Wind_Direction_500mb
350 350 355 357 349 348 353 15 301 217 322 256 224 304 317 331 316 337 345 335 337 325 330 329 351 352 297 240 271 297 93 286 293 271 273 276 280 286 226 233 222 246 216 260
356 351 353 359 354 348 348 334 279 279 303 305 327 293 328 320 331 311 322 339 331 8 360 332 333 298 263 261 260 308 21 323 310 297 251 244 252 280 232 227 224 226 240 243
356 354 351 358 359 347 345 332 321 1 336 358 326 333 308 320 319 329 345 326 323 320 285 291 279 249 270 193 281 118 117 252 235 272 300 322 298 316 326 322 227 222 239 251
354 353 351 354 0 355 349 336 347 8 322 325 308 318 292 321 328 339 324 303 318 325 310 306 301 318 321 339 215 131 149 265 256 277 283 287 271 283 297 310 292 224 238 254
351 351 351 351 357 6 10 344 340 321 296 305 310 319 321 310 314 326 312 316 337 337 294 289 308 305 296 295 197 207 177 264 295 292 279 221 271 280 283 278 279 281 241 244
346 348 350 348 356 0 359 323 321 317 282 296 323 323 330 323 331 303 317 313 327 297 292 302 293 284 272 267 268 270 252 205 320 263 109 146 268 256 263 261 273 269 237 223
342 345 347 345 344 355 332 321 316 289 288 311 307 320 316 334 326 308 314 314 324 316 322 315 299 282 260 245 241 227 250 252 325 285 315 147 247 327 219 230 266 293 243 120
334 338 343 344 340 331 335 339 296 288 281 301 301 336 322 318 314 324 325 331 323 318 331 314 325 316 190 227 218 214 221 166 251 255 310 319 309 6 355 333 8 4 89 93
328 331 335 337 341 332 322 337 267 285 297 242 321 311 308 314 323 318 321 328 344 344 55 313 314 32 340 344 328 30 290 162 191 326 191 243 12 331 332 319 68 323 51 65
320 325 328 331 335 333 323 326 306 287 263 281 284 305 302 321 320 284 304 333 330 6 336 331 334 347 334 333 0 348 321 145 221 229 292 354 333 327 311 109 74 294 39 50
312 318 321 326 328 329 321 320 328 266 272 283 287 293 300 301 296 308 318 341 6 334 9 329 345 352 354 321 343 344 346 310 181 154 12 274 350 321 49 325 316 300 51 42
314 312 317 320 324 324 319 313 314 279 287 271 289 301 308 277 268 279 287 267 278 355 324 356 317 308 325 326 344 340 23 352 309 350 55 22 339 347 341 333 298 17 49 42
309 314 312 314 319 322 317 311 314 283 283 300 293 322 326 299 261 254 252 262 277 302 338 292 294 311 342 336 341 309 342 8 22 253 356 5 348 340 332 358 24 24 27 39
300 305 311 312 316 318 316 305 300 245 267 273 280 306 293 286 246 243 257 249 273 291 284 255 247 253 210 351 250 335 234 344 352 309 8 7 5 342 351 355 20 19 24 35
303 301 305 310 312 316 314 311 296 216 230 289 299 324 353 234 227 253 272 273 265 299 274 227 247 227 144 105 268 346 349 51 16 345 305 259 331 355 350 352 5 5 8 36
305 301 302 303 309 313 319 326 346 177 210 277 301 290 278 224 232 240 246 254 222 248 262 266 252 276 102 93 337 338 20 13 62 232 330 331 7 3 11 11 5 358 24 35
324 316 302 299 310 303 221 227 117 175 210 264 278 277 294 218 242 252 248 230 230 223 259 257 278 308 61 137 65 11 26 358 354 350 356 7 11 4 0 19 15 18 35 35
322 310 300 300 306 297 271 214 261 197 212 258 268 279 285 228 222 241 224 233 216 231 249 272 287 338 7 59 43 68 53 35 47 28 15 24 20 15 10 15 21 22 32 28
320 310 307 300 205 232 233 260 224 202 232 276 244 246 275 80 280 255 209 231 206 240 212 254 74 353 59 337 37 63 55 37 12 345 6 36 31 27 20 20 19 16 14 16
331 330 355 189 34 344 308 226 189 209 214 226 256 239 262 300 279 315 2 322 270 242 244 149 70 25 324 86 77 90 57 52 41 38 27 42 42 52 33 25 20 16 7 356
356 331 294 253 246 316 252 222 195 192 226 218 239 218 232 289 289 192 10 307 279 271 325 165 175 280 196 189 133 72 54 59 54 67 51 64 57 50 44 40 30 17 4 355
301 291 287 293 237 235 248 212 214 206 235 193 213 193 191 167 141 90 301 209 335 275 264 214 162 204 187 207 116 95 77 48 60 52 73 61 69 58 50 49 44 36 21 7
322 264 264 229 219 239 217 216 219 207 206 169 197 161 152 114 117 132 84 73 245 308 325 295 193 180 155 151 146 99 92 65 57 61 95 77 73 68 49 36 35 38 30 20
276 228 252 217 216 231 206 251 262 233 221 115 87 128 142 175 165 153 188 217 89 305 264 241 137 225 160 162 160 160 163 111 76 83 60 95 65 59 38 35 37 42 30 25
272 236 241 233 235 271 273 256 262 273 223 178 298 100 135 64 204 209 285 232 246 203 234 233 170 180 175 149 136 153 126 136 97 59 60 78 75 68 45 33 63 30 30 22
239 239 261 279 285 284 291 270 272 299 285 200 194 147 175 186 191 167 208 186 216 244 228 162 150 203 148 158 159 167 146 151 121 102 95 74 71 74 66 48 58 35 35 23
235 244 258 269 278 278 281 289 292 268 211 264 121 205 209 205 156 205 176 201 215 219 254 261 144 170 163 174 183 172 161 144 132 141 144 107 58 85 74 60 64 61 47 31
Wind_Speed_850mb
53 58 65 67 64 66 54 13 7 8 19 7 6 5 31 44 42 54 28 23 25 24 32 27 18 21 18 21 16 12 6 6 12 25 35 34 36 42 32 17 37 17 9 17
56 55 59 63 55 56 58 32 17 19 7 3 4 18 28 37 38 23 23 29 28 23 18 15 10 9 24 29 11 3 8 6 10 15 12 16 13 25 30 13 9 40 20 25
58 59 55 58 51 41 46 16 8 16 32 33 20 22 22 30 38 29 35 26 31 14 8 16 16 15 17 20 26 13 10 7 13 17 19 16 22 41 32 22 19 16 26 38
58 61 56 53 52 35 29 8 10 25 10 23 28 22 21 37 35 25 38 10 24 33 23 32 26 28 27 3 13 8 6 9 20 29 36 23 32 39 39 31 29 23 33 15
57 60 56 50 53 40 18 16 14 19 33 37 33 17 14 28 24 29 17 30 28 22 30 27 32 25 19 19 19 9 8 7 19 25 28 22 35 40 37 39 44 34 40 37
55 56 55 48 51 45 13 19 18 27 17 17 19 20 36 36 31 18 47 35 18 23 31 42 60 52 44 28 22 18 16 9 6 9 17 17 15 31 36 28 37 42 36 33
56 52 52 46 42 40 29 27 32 15 13 16 23 39 41 36 41 24 42 37 18 29 66 65 43 53 46 37 30 24 24 6 0 8 3 9 10 21 32 33 30 37 20 37
54 51 49 48 45 40 38 29 20 11 9 28 36 39 39 53 45 29 38 46 64 62 33 11 12 9 4 21 32 27 26 8 6 5 5 23 25 20 21 13 15 37 41 44
53 49 47 48 49 43 39 37 16 29 16 12 46 52 47 27 15 15 23 47 53 20 4 5 8 8 9 8 10 28 8 17 7 5 9 12 13 43 62 38 11 23 20 19
50 49 47 47 47 43 38 41 8 32 25 49 31 28 29 34 33 9 19 40 22 33 9 4 5 6 6 10 11 5 3 3 10 6 3 5 24 50 83 11 2 14 24 21
47 48 46 47 45 46 46 51 18 27 29 66 62 35 50 68 50 8 26 23 13 8 12 7 7 6 7 8 9 12 8 8 1 5 1 4 39 40 13 14 26 15 35 31
46 46 47 46 46 45 45 53 18 29 38 53 74 53 40 44 44 40 4 6 11 9 5 6 6 4 5 9 8 9 5 9 4 10 8 9 37 48 37 28 20 32 38 39
46 49 48 47 46 44 47 57 39 18 35 56 18 30 29 20 19 31 4 6 8 7 11 7 4 5 5 5 5 7 11 20 5 2 11 12 31 46 47 46 54 49 46 42
49 53 48 47 47 48 52 54 29 26 18 10 20 34 50 23 27 21 14 11 10 12 13 10 5 5 5 4 4 3 5 10 14 4 11 11 31 54 58 50 51 42 49 44
53 49 45 47 50 54 53 46 27 32 23 9 29 52 17 18 38 19 15 16 7 4 7 8 6 6 6 4 4 6 10 4 4 4 24 11 11 38 47 47 38 34 38 40
54 49 42 46 51 51 32 9 6 10 35 11 8 22 25 25 21 23 32 26 14 8 9 12 10 7 9 3 4 2 19 20 14 9 28 22 25 30 44 36 38 45 45 44
44 35 35 43 42 35 13 6 3 15 25 9 11 9 9 22 18 22 27 30 22 15 10 10 12 19 3 5 4 9 11 14 13 20 24 26 35 42 42 43 50 30 33 34
39 36 39 39 27 14 9 23 13 17 20 12 6 8 12 14 15 8 22 14 19 14 10 10 6 15 4 6 8 17 10 10 18 19 16 14 17 24 33 36 47 56 50 46
35 30 32 20 5 7 9 15 19 34 15 8 8 5 5 1 22 5 9 13 5 9 6 6 3 4 5 3 16 20 17 11 13 10 21 16 25 32 34 37 41 42 42 41
23 19 8 3 6 17 13 7 8 12 14 15 9 24 9 9 13 3 8 7 4 3 8 1 4 1 1 9 6 7 9 14 14 28 24 19 20 19 24 26 24 27 30 31
18 11 8 9 7 8 8 8 11 14 9 16 16 32 16 6 5 3 3 3 6 4 4 6 3 3 7 9 13 9 15 16 19 24 18 21 21 20 20 25 25 24 24 27
25 28 37 26 7 11 8 7 9 12 9 19 11 21 21 10 5 5 1 2 5 7 3 5 5 6 26 18 21 15 17 12 24 21 16 27 36 29 32 29 29 27 27 29
15 5 6 6 8 8 11 11 8 8 12 16 16 11 13 8 7 3 3 1 7 20 6 2 5 23 29 19 13 8 12 12 21 23 22 20 23 22 28 27 25 24 30 38
8 7 8 10 10 11 11 15 13 13 20 2 2 17 11 11 7 6 6 8 3 5 4 2 6 9 27 25 21 14 8 9 10 28 13 15 23 21 25 23 25 29 33 40
10 10 9 12 29 33 34 39 42 41 11 2 6 6 12 3 2 6 1 4 4 9 7 3 24 21 26 25 22 12 8 10 12 12 18 20 23 19 21 21 18 33 27 38
11 17 16 32 27 25 33 33 27 29 18 15 8 3 4 8 7 7 10 6 10 7 5 20 28 22 21 20 17 16 16 15 10 8 7 11 14 13 14 18 19 29 27 35
13 16 26 40 45 41 50 49 41 18 11 11 8 4 10 6 6 5 7 9 8 18 20 18 21 20 20 15 11 23 17 9 13 8 8 9 7 15 13 19 21 19 29 35
Wind_Direction_850mb
350 350 355 357 349 348 353 15 301 217 322 256 224 304 317 331 316 337 345 335 337 325 330 329 351 352 297 240 271 297 93 286 293 271 273 276 280 286 226 233 222 246 216 260
356 351 353 359 354 348 348 334 279 279 303 305 327 293 328 320 331 311 322 339 331 8 360 332 333 298 263 261 260 308 21 323 310 297 251 244 252 280 232 227 224 226 240 243
356 354 351 358 359 347 345 332 321 1 336 358 326 333 308 320 319 329 345 326 323 320 285 291 279 249 270 193 281 118 117 252 235 272 300 322 298 316 326 322 227 222 239 251
354 353 351 354 0 355 349 336 347 8 322 325 308 318 292 321 328 339 324 303 318 325 310 306 301 318 321 339 215 131 149 265 256 277 283 287 271 283 297 310 292 224 238 254
351 351 351 351 357 6 10 344 340 321 296 305 310 319 321 310 314 326 312 316 337 337 294 289 308 305 296 295 197 207 177 264 295 292 279 221 271 280 283 278 279 281 241 244
346 348 350 348 356 0 359 323 321 317 282 296 323 323 330 323 331 303 317 313 327 297 292 302 293 284 272 267 268 270 252 205 320 263 109 146 268 256 263 261 273 269 237 223
342 345 347 345 344 355 332 321 316 289 288 311 307 320 316 334 326 308 314 314 324 316 322 315 299 282 260 245 241 227 250 252 325 285 315 147 247 327 219 230 266 293 243 120
334 338 343 344 340 331 335 339 296 288 281 301 301 336 322 318 314 324 325 331 323 318 331 314 325 316 190 227 218 214 221 166 251 255 310 319 309 6 355 333 8 4 89 93
328 331 335 337 341 332 322 337 267 285 297 242 321 311 308 314 323 318 321 328 344 344 55 313 314 32 340 344 328 30 290 162 191 326 191 243 12 331 332 319 68 323 51 65
320 325 328 331 335 333 323 326 306 287 263 281 284 305 302 321 320 284 304 333 330 6 336 331 334 347 334 333 0 348 321 145 221 229 292 354 333 327 311 109 74 294 39 50
312 318 321 326 328 329 321 320 328 266 272 283 287 293 300 301 296 308 318 341 6 334 9 329 345 352 354 321 343 344 346 310 181 154 12 274 350 321 49 325 316 300 51 42
314 312 317 320 324 324 319 313 314 279 287 271 289 301 308 277 268 279 287 267 278 355 324 356 317 308 325 326 344 340 23 352 309 350 55 22 339 347 341 333 298 17 49 42
309 314 312 314 319 322 317 311 314 283 283 300 293 322 326 299 261 254 252 262 277 302 338 292 294 311 342 336 341 309 342 8 22 253 356 5 348 340 332 358 24 24 27 39
300 305 311 312 316 318 316 305 300 245 267 273 280 306 293 286 246 243 257 249 273 291 284 255 247 253 210 351 250 335 234 344 352 309 8 7 5 342 351 355 20 19 24 35
303 301 305 310 312 316 314 311 296 216 230 289 299 324 353 234 227 253 272 273 265 299 274 227 247 227 144 105 268 346 349 51 16 345 305 259 331 355 350 352 5 5 8 36
305 301 302 303 309 313 319 326 346 177 210 277 301 290 278 224 232 240 246 254 222 248 262 266 252 276 102 93 337 338 20 13 62 232 330 331 7 3 11 11 5 358 24 35
324 316 302 299 310 303 221 227 117 175 210 264 278 277 294 218 242 252 248 230 230 223 259 257 278 308 61 137 65 11 26 358 354 350 356 7 11 4 0 19 15 18 35 35
322 310 300 300 306 297 271 214 261 197 212 258 268 279 285 228 222 241 224 233 216 231 249 272 287 338 7 59 43 68 53 35 47 28 15 24 20 15 10 15 21 22 32 28
320 310 307 300 205 232 233 260 224 202 232 276 244 246 275 80 280 255 209 231 206 240 212 254 74 353 59 337 37 63 55 37 12 345 6 36 31 27 20 20 19 16 14 16
331 330 355 189 34 344 308 226 189 209 214 226 256 239 262 300 279 315 2 322 270 242 244 149 70 25 324 86 77 90 57 52 41 38 27 42 42 52 33 25 20 16 7 356
356 331 294 253 246 316 252 222 195 192 226 218 239 218 232 289 289 192 10 307 279 271 325 165 175 280 196 189 133 72 54 59 54 67 51 64 57 50 44 40 30 17 4 355
301 291 287 293 237 235 248 212 214 206 235 193 213 193 191 167 141 90 301 209 335 275 264 214 162 204 187 207 116 95 77 48 60 52 73 61 69 58 50 49 44 36 21 7
322 264 264 229 219 239 217 216 219 207 206 169 197 161 152 114 117 132 84 73 245 308 325 295 193 180 155 151 146 99 92 65 57 61 95 77 73 68 49 36 35 38 30 20
276 228 252 217 216 231 206 251 262 233 221 115 87 128 142 175 165 153 188 217 89 305 264 241 137 225 160 162 160 160 163 111 76 83 60 95 65 59 38 35 37 42 30 25
272 236 241 233 235 271 273 256 262 273 223 178 298 100 135 64 204 209 285 232 246 203 234 233 170 180 175 149 136 153 126 136 97 59 60 78 75 68 45 33 63 30 30 22
239 239 261 279 285 284 291 270 272 299 285 200 194 147 175 186 191 167 208 186 216 244 228 162 150 203 148 158 159 167 146 151 121 102 95 74 71 74 66 48 58 35 35 23
235 244 258 269 278 278 281 289 292 268 211 264 121 205 209 205 156 205 176 201 215 219 254 261 144 170 163 174 183 172 161 144 132 141 144 107 58 85 74 60 64 61 47 31